Location: Newark
(41.6500°N, 71.4833°W)
Time: 18:19:45
(UTC+00:00)

deb Explorer IX - Pass Details

Date: 24 January 2020
Orbit: 549 x 1099 km, 38.8° (Epoch: 17 February)

Event Time Altitude Azimuth Distance (km) Brightness Sun altitude
Rises 06:30:33 0° 275° (W) 3,908 - -60.2°
Reaches altitude 10° 06:33:23 10° 272° (W) 2,944 - -59.8°
Maximum altitude 06:40:32 61° 194° (SSW) 1,181 - -58.8°
Drops below altitude 10° 06:47:06 10° 116° (ESE) 2,716 - -57.8°
Sets 06:49:38 0° 113° (ESE) 3,589 - -57.4°
